Вернуться в каталог

DEIMOS 2

АктивенНаукаSSO
NORAD 40013·PAYLOAD·🇪🇸 Spain

Запущен Jun 19, 2014 с Dombarovsky

Loading…

Ближайшие Пролёты (ближайшие 24 часа)

TLE

СвежийSource: Space-Track

Эпоха: Sep 14, 2026, 14:33 UTC

1 40013U 14033D   26257.60625252  .00001660  00000-0  16111-3 0  9995
2 40013  97.5676 128.8987 0002343  66.2642 293.8824 14.93926590651074

Отслеживайте DEIMOS 2 в реальном времени с AllMySat

Download on the App Store